Location: *
(42.1160°S, 166.9240°W)
Time: 00:16:38
(UTC+00:00)

Daily predictions for brighter satellites

Satellite Brightness Start Highest point End
(mag) Time Altitude Azimuth Time Altitude Azimuth Time Altitude Azimuth
Ariane Rocket 3.2 04:37:46 10° SSE 04:42:51 54° E 04:47:51 10° N
Cosmos 1726 2.6 04:40:55 10° SSW 04:44:42 67° W 04:48:24 10° N
Helios 1B rocket 4.4 04:45:21 10° E 04:46:43 11° ESE 04:48:05 10° SE
Meteor 1-11 4.4 04:42:40 10° N 04:48:25 63° E 04:54:14 10° SSE
Meteor 1-28 Rocket 4.4 04:45:17 10° N 04:48:57 49° W 04:52:43 10° SSW
Cosmos 1743 Rocket 4.1 04:44:37 10° NNW 04:48:59 67° W 04:53:25 10° S
Lacrosse 5 rocket 3.7 04:49:27 10° SSW 04:50:20 11° SSW 04:51:12 10° S
Sich 1 4.5 04:47:40 10° NE 04:50:32 17° E 04:53:25 10° SE
Cosmos 1515 Rocket 3.8 04:46:12 10° S 04:50:39 77° W 04:55:00 10° N
Tiangong 1 4.2 04:49:57 10° NW 04:50:54 11° NW 04:51:51 10° NNW
Cosmos 1300 3.3 04:48:51 10° SSW 04:52:45 65° W 04:56:35 10° N
Cosmos 2322 Rocket 2.3 04:47:52 10° SSW 04:53:37 86° WNW 04:59:16 10° NNE
COSMOS 2428 4.0 04:49:55 10° S 04:54:14 21° SE 04:58:32 10° E
Abrixas 2.5 04:51:33 10° SW 04:54:21 53° SSE 04:57:09 10° ENE
IDEFIX/ARIANE 42P 2.7 04:51:48 10° SSE 04:57:03 59° E 05:02:12 10° N
Cosmos 2058 2.9 04:54:21 10° N 04:58:31 69° E 05:02:47 10° SSE
SMAP 3.6 04:58:05 10° SSE 05:02:32 39° E 05:06:54 10° NNE
Cosmos 2360 Rocket 2.5 04:57:33 10° SSW 05:03:02 46° ESE 05:08:28 10° NE
BREEZE-M DEB (TANK) 2.8 05:01:15 10° WSW 05:03:33 48° NNW 05:08:13 10° NE
Cosmos 1242 Rocket 3.4 05:00:42 10° SSW 05:04:25 57° W 05:08:06 10° N
PAYLOAD A 3.9 04:59:59 10° SSE 05:04:49 88° WSW 05:09:43 10° NNW
CSL-04 Rocket 3.7 05:01:27 10° SSE 05:06:55 82° ENE 05:12:23 10° NNW
MSX 4.0 05:04:45 10° SSE 05:10:28 51° E 05:16:06 10° N
IRS-1A Rocket 4.3 05:06:35 10° SSE 05:12:12 57° ENE 05:17:40 10° N
Cosmos 2322 3.9 05:08:02 10° SSW 05:13:38 49° ESE 05:19:11 10° NE
SJ-12 3.9 05:10:31 10° SSE 05:14:44 78° ENE 05:18:54 10° N
Cosmos 1484 Rocket 3.4 05:13:21 10° SSE 05:16:46 31° E 05:20:09 10° NNE
BREEZE-M DEB (TANK) 3.5 05:14:52 10° WSW 05:17:37 71° SSE 05:28:11 11° ENE
Gbstr 26 Del rocket 4.3 05:16:28 10° WSW 05:21:03 50° NW 05:26:40 10° NNE
SL-16 R/B 3.2 05:16:32 10° SW 05:22:04 51° WNW 05:27:33 10° N
Cosmos 1992 Rocket 3.9 05:17:04 10° SSW 05:22:22 78° ESE 05:27:38 10° NNE
YAOGAN 1 2.7 05:25:20 10° SSE 05:29:41 55° E 05:33:57 10° N
CSL-04 Debris 4.5 05:25:29 10° S 05:30:57 72° WSW 05:36:21 10° NNW
Cosmos 1626 2.5 05:29:05 10° NNW 05:32:50 69° W 05:36:39 10° S
NOSS 3-1 (C) 3.3 05:26:41 10° SSW 05:33:13 72° SE 05:38:59 10° NE
Cosmos 2333 Rocket 3.4 05:30:04 10° S 05:34:19 21° SE 05:35:29 20° ESE
ATLAS CENTAUR R/B 3.3 05:31:29 10° S 05:34:51 18° SE 05:35:37 18° SE
Cosmos 2219 3.8 05:30:36 10° NNE 05:35:43 35° ENE 05:40:00 14° SE
CZ-4 R/B 1.5 05:31:51 10° S 05:36:04 84° WSW 05:40:08 10° NNW
Cosmos 2237 Rocket 3.7 05:34:36 10° S 05:38:13 17° SE 05:38:35 17° SE
Cosmos 1633 Rocket 3.2 05:35:31 10° NNE 05:39:44 50° E 05:44:02 10° SSE
Cosmos 1455 2.5 05:40:35 10° SSW 05:44:33 73° W 05:48:27 10° N
CZ-2C R/B 3.3 05:40:27 10° S 05:45:18 53° WSW 05:50:15 10° NNW
ATLAS 2AS CENTAUR R/B 3.7 05:41:58 10° SSW 05:46:38 22° SE 05:48:08 20° SE
NOSS 3-1 (A) 3.3 05:41:41 10° SSW 05:48:13 69° SE 05:52:46 17° NE
Cosmos 1707 Rocket 3.6 05:45:26 10° S 05:50:00 84° W 05:54:31 10° N
CORIOLIS 4.2 05:46:28 10° SSE 05:52:02 88° WSW 05:57:30 10° NNW
CZ-4 R/B 4.4 05:50:03 10° SSE 05:54:19 87° ENE 05:58:31 10° NNW
Cosmos 676 Rocket 4.1 05:54:39 10° N 05:59:40 51° ENE 06:02:34 24° SE
BREEZE-M DEB (TANK) 3.8 05:50:51 10° NW 06:02:13 52° NNE 06:03:28 40° ENE
Cosmos 2346 Rocket 4.5 05:56:54 10° N 06:03:03 84° W 06:09:15 10° S
Cosmos 1862 Rocket 4.4 05:59:04 10° S 06:02:06 33° SE 06:02:06 33° SE
Cosmos 1666 Rocket 3.9 05:59:14 10° NNW 06:03:44 72° W 06:08:18 10° S
Cosmos 1954 Rocket 4.2 06:00:06 10° N 06:05:01 46° ENE 06:06:03 40° ESE
Cosmos 2219 Rocket 2.5 06:02:39 10° SSW 06:08:02 42° ESE 06:08:38 40° ESE
Cosmos 1869 3.5 06:04:12 10° SSW 06:08:15 72° W 06:12:13 10° N
Cosmos 1190 Rocket 4.1 06:03:49 10° NNW 06:09:03 78° WSW 06:14:21 10° SSE
SPOT 3 Rocket 3.6 06:04:22 10° SSE 06:09:41 81° WSW 06:14:54 10° NNW
USA 215 3.7 06:12:33 35° ESE 06:14:40 46° SSE 06:20:55 10° SW
Cosmos 1634 Rocket 4.1 06:10:55 10° S 06:17:11 76° W 06:23:25 10° N
Helios 1B rocket 2.6 06:17:22 11° N 06:21:25 71° WNW 06:25:38 10° SSW
Cosmos 407 Rocket 3.7 06:16:32 10° NNW 06:21:41 69° WSW 06:26:58 10° SSE
Meteor 2-10 Rocket 3.8 06:19:39 10° S 06:24:29 51° SE 06:24:29 51° SE
Cosmos 2242 Rocket 3.9 06:23:06 10° SSW 06:27:45 68° W 06:32:20 10° N
Sich 1 4.4 06:23:49 10° NNW 06:27:53 39° WSW 06:31:59 10° S
COSMOS 2428 3.0 06:33:20 10° SSW 06:39:02 67° WNW 06:41:53 30° N
Cosmos 1470 Rocket 4.2 06:40:55 10° NNW 06:44:29 51° NW 06:44:29 51° NW
Cosmos 2360 Rocket 4.3 06:42:09 10° SW 06:46:43 26° WNW 06:51:16 10° NNW
Centaur D-1A AC-31 3.6 06:47:20 10° NNW 06:48:44 15° N 06:48:44 15° N
Cosmos 1980 4.5 06:49:26 10° SSW 06:53:19 42° S 06:53:19 42° S
Cosmos 2279 Rocket 4.3 06:50:40 10° SSW 06:56:56 64° W 07:03:08 10° N
NOAA 12 4.5 06:58:56 59° NW 06:58:56 59° NW 07:03:20 10° NNW
SL-16 R/B 4.1 06:54:34 10° S 06:56:15 17° S 06:56:15 17° S
ATLAS CENTAUR R/B 3.5 07:09:34 10° SW 07:11:55 28° SW 07:11:55 28° SW
NOSS 0 Rocket 4.3 07:10:33 10° SSW 07:15:55 63° WSW 07:15:55 63° WSW
Cosmos 2333 Rocket 3.0 07:13:26 10° SSW 07:17:32 46° SW 07:17:32 46° SW
Cosmos 2237 Rocket 3.5 07:17:19 10° SSW 07:20:26 34° SSW 07:20:26 34° SSW
ATLAS 2AS CENTAUR R/B 3.6 07:32:02 10° SW 07:35:34 37° SSW 07:35:34 37° SSW
Cosmos 2219 Rocket 4.1 07:46:59 10° SW 07:50:23 26° WSW 07:50:23 26° WSW
USA 215 4.3 07:59:53 40° WSW 07:59:53 40° WSW 08:04:03 10° SW
